Weather History for Berlin, NH

Change the Weather History Date:

Tuesday, January 4, 2011

  Actual Average Record
Temperature  
Mean Temperature 20 °F -  
Max Temperature 28 °F 24 °F 48 °F (2000)
Min Temperature 12 °F 4 °F -25 °F (2014)
Degree Days  
Heating Degree Days 45    
Moisture  
Dew Point 15 °F    
Average Humidity 79    
Maximum Humidity 93    
Minimum Humidity 51    
Precipitation  
Precipitation 0.00 in - - ()
Sea Level Pressure  
Sea Level Pressure 29.79 in    
Wind  
Wind Speed 4 mph (NW)    
Max Wind Speed 10 mph    
Max Gust Speed 20 mph    
Visibility 8 miles    
Events Snow    
Averages and records for this station are not official NWS values.
T = Trace of Precipitation, MM = Missing Value Source: NWS Daily Summary

Daily Weather History Graph

Daily Weather History Graph

Search for Another Location

Airport:

Trip Planner

Search our weather history database for the weather conditions in past years. The results will help you decide how hot, cold, wet, or windy it might be!

Date:

Astronomy

Jan. 04, 2011 Rise Set
Actual Time 7:21 AM EST 4:17 PM EST
Civil Twilight 6:48 AM EST 4:51 PM EST
Nautical Twilight 6:11 AM EST 5:27 PM EST
Astronomical Twilight 5:36 AM EST 6:03 PM EST
Moon 7:27 AM EST (1/4) 4:49 PM EST (1/4)
Length of Visible Light 10h 02m
Length of Day
8h 56m
New Moon, 0% of the Moon is Illuminated
Jan 4
New Moon
Jan 12
First Quarter
Jan 19
Full
Jan 26
Last Quarter
Feb 2
New

Hourly Weather History & Observations

Time (EST) Temp. Windchill Dew Point Humidity Pressure Visibility Wind Dir Wind Speed Gust Speed Precip Events Conditions
12:52 AM 21.9 °F 11.7 °F 12.9 °F 68% 29.96 in 5.0 mi WNW 9.2 mph 17.3 mph 0.00 in Snow Light Snow
1:52 AM 21.9 °F 11.0 °F 12.9 °F 68% 29.96 in 10.0 mi WNW 10.4 mph 19.6 mph 0.00 in   Overcast
2:52 AM 21.9 °F 11.7 °F 12.0 °F 66% 29.95 in 10.0 mi West 9.2 mph 19.6 mph N/A   Overcast
3:52 AM 21.9 °F 14.5 °F 14.0 °F 72% 29.95 in 10.0 mi Variable 5.8 mph - N/A   Overcast
4:52 AM 19.9 °F - 14.0 °F 78% 29.94 in 10.0 mi Calm Calm - 0.00 in   Mostly Cloudy
5:52 AM 17.1 °F - 12.9 °F 84% 29.94 in 9.0 mi Calm Calm - N/A   Overcast
6:52 AM 19.9 °F 13.4 °F 12.0 °F 71% 29.93 in 10.0 mi NNW 4.6 mph - N/A   Scattered Clouds
7:38 AM 12.2 °F - 8.6 °F 85% 29.86 in 10.0 mi Calm Calm - N/A   Mostly Cloudy
7:52 AM 12.0 °F - 9.0 °F 88% 29.94 in 8.0 mi Calm Calm - N/A   Overcast
8:52 AM 15.1 °F - 12.0 °F 88% 29.92 in 9.0 mi Calm Calm - N/A   Overcast
9:38 AM 17.6 °F - 12.2 °F 79% 29.84 in 10.0 mi Calm Calm - N/A   Scattered Clouds
9:52 AM 21.0 °F - 12.9 °F 71% 29.90 in 10.0 mi Calm Calm - N/A   Clear
10:52 AM 26.1 °F 20.5 °F 12.0 °F 55% 29.87 in 10.0 mi Variable 4.6 mph - N/A   Clear
11:52 AM 28.0 °F 22.8 °F 12.0 °F 51% 29.83 in 10.0 mi Variable 4.6 mph - N/A   Mostly Cloudy
12:52 PM 27.0 °F 20.5 °F 14.0 °F 58% 29.80 in 10.0 mi NW 5.8 mph - N/A   Mostly Cloudy
1:52 PM 26.1 °F 20.5 °F 15.1 °F 63% 29.78 in 10.0 mi West 4.6 mph - N/A   Mostly Cloudy
2:29 PM 26.6 °F 22.6 °F 15.8 °F 64% 29.71 in 9.0 mi NW 3.5 mph - N/A   Overcast
2:49 PM 24.8 °F 19.1 °F 17.6 °F 74% 29.71 in 10.0 mi North 4.6 mph - N/A   Scattered Clouds
2:52 PM 25.0 °F 20.7 °F 17.1 °F 72% 29.76 in 10.0 mi North 3.5 mph - N/A   Partly Cloudy
3:52 PM 25.0 °F - 18.0 °F 75% 29.75 in 10.0 mi Calm Calm - N/A   Clear
4:26 PM 24.8 °F - 17.6 °F 74% 29.69 in 7.0 mi Calm Calm - N/A   Mostly Cloudy
4:52 PM 23.0 °F - 18.0 °F 81% 29.75 in 7.0 mi Calm Calm - N/A   Overcast
5:52 PM 18.0 °F - 16.0 °F 92% 29.75 in 5.0 mi Calm Calm - N/A   Overcast
6:00 PM 19.4 °F - 15.8 °F 86% 29.68 in 4.0 mi Calm Calm - 0.00 in Snow Light Snow
6:50 PM 17.6 °F - 15.8 °F 93% 29.68 in 7.0 mi Calm Calm - 0.00 in   Overcast
6:52 PM 17.1 °F - 15.1 °F 92% 29.74 in 7.0 mi Calm Calm - 0.00 in   Overcast
7:52 PM 19.0 °F - 16.0 °F 88% 29.74 in 8.0 mi Calm Calm - N/A   Overcast
8:52 PM 19.9 °F - 18.0 °F 92% 29.72 in 8.0 mi Calm Calm - N/A   Overcast
9:52 PM 21.0 °F - 18.0 °F 88% 29.71 in 7.0 mi Calm Calm - N/A   Overcast
10:19 PM 19.4 °F - 17.6 °F 93% 29.64 in 2.5 mi Calm Calm - 0.00 in Snow Light Snow
10:30 PM 21.2 °F - 17.6 °F 86% 29.64 in 2.0 mi Calm Calm - 0.00 in Snow Light Snow
10:52 PM 19.9 °F - 18.0 °F 92% 29.69 in 2.0 mi Calm Calm - 0.00 in Snow Light Snow
11:21 PM 19.4 °F - 17.6 °F 93% 29.63 in 3.0 mi Calm Calm - 0.00 in Snow Light Snow
11:52 PM 19.0 °F - 17.1 °F 92% 29.67 in 4.0 mi Calm Calm - 0.00 in Snow Light Snow